Location: Newark
(40.9833°N, 0.0333°W)
Time: 03:10:59
(UTC+00:00)

Transit 2A Rocket - Pass Details

Date: 04 November 2020
Orbit: 588 x 914 km, 66.7° (Epoch: 26 November)

Event Time Altitude Azimuth Distance (km) Brightness Sun altitude
Rises 17:56:35 0° 316° (NW) 3,179 8.7 -12.6°
Reaches altitude 10° 17:59:34 10° 301° (WNW) 2,187 8.1 -13.1°
Maximum altitude 18:03:08 20° 254° (WSW) 1,532 7.7 -13.8°
Drops below altitude 10° 18:06:30 10° 207° (SSW) 2,037 7.7 -14.4°
Sets 18:09:10 0° 190° (S) 2,894 8.2 -14.9°
